SCOUT X-4 R/B, 871

Orbit data source: Space-Track

SCOUT X-4 R/B, 871 is space debris in LEO originally from a launch on Tue, 25 Aug 1964 UTC launched from the Air Force Western Test Range (AFWTR). Debris objects in space refer to the collection of defunct objects orbiting the Earth. Examples of debris include non-operational satellites, rocket bodies, and fragments generated from explosions, collisions, or faulty payload assembly.

Loading next visibility...
Identifier
871, 1964-051B
Orbit
LEO
Country
Flag of USUS
Related business
Manufacturer
ABL
Mission
Spacecraft
Bus & Motor
ALTAIR, Unknown motor
Mass
33 kg wet, 33 kg dry
Launch date (UTC)
1964-08-25 (62 years ago)
Launch vehicle
Unknown
Launch site
Air Force Western Test Range (AFWTR)
Object type
Payload
Rocket body
Debris
Shape & HBR
CYL, 0.8 m
Radar Cross Section
Medium (>0.1 m² and <1 m²)

Expand to show TLE details & history
Last TLE update: 21 hours ago

TLE from 21 hours ago
0 SCOUT X-4 R/B
1 00871U 64051B   26207.61094738  .00000248  00000-0  15596-3 0  9990
2 00871  79.8930  24.2494 0086266  40.9230 319.8363 14.00706091150383
Epoch: 2026-07-26T14:39Z
TLE epoch observation values (Epoch: 2026-07-26T14:39:45.853Z)
Latitude
-0.00003°
Longitude
-139.99806°
Altitude
846.486 km
Speed
7.454 km/s
True Right ascension
01h 36m 59s
True Declination
0° 00' 00"
Sunlit
Object was in daylight at epoch
Visualization orbit readout
Latitude
Unknown
Longitude
Unknown
Altitude
Unknown
Speed
Unknown
Apparent Right ascension
Unknown
Apparent Declination
Unknown
Sunlit
N/A
Visualization observer readout
Local Sidereal Time
01:16:26
Azimuth
Unknown
Elevation
Unknown
Doppler factor
Unknown
Orbital elements
Apogee altitude
951.294 km
Perigee altitude
825.919 km
Semi-major axis
7,266.744 km
Eccentricity
0.00863
Inclination
79.893°
RAAN
24.2494°
Arg. of periapsis
40.923°
True anomaly
319.19344°
Mean anomaly
319.8363°
Eccentric anomaly
319.5154°
Mean motion
3.50375 °/min
Orbital period
102.75 mins
BSTAR
0.00015596
Loading maneuver chart data...
Computing Atmospheric mass density...
Loading historical data...
Loading historical data...
Loading historical data...
Loading historical data...
Loading historical data...
Loading historical data...
Loading historical data...

Documentation

Showing up to 5 results
|